sat.trackr.live / text

‹ back to catalog

STARLINK-5672

NORAD 55468 · 2023-015V

PAYLOAD ACTIVE UNKNOWN

§ Identity

Operator
Country
US
Launch date
2023-02-02
Launch site
AFETR
Launch vehicle
Mass (kg)
RCS (m²)

Purposes: comms

External: N2YO · Heavens-Above · Gunter

§ Orbital elements

Epoch: 2026-09-20T14:51:11.688192Z

Period
94.27 min
Inclination
43.0024°
Eccentricity
0.0001220
Mean motion
15.27578486 rev/d
Perigee alt
482.2 km
Apogee alt
483.9 km
Semi-major
6,861.2 km
B*
-1.8547e-5
RAAN
307.8868°
Arg perigee
275.1045°
Mean anomaly
84.9667°
Rev number
20,053

§ Raw data

STARLINK-56721 55468U 23015V   26263.61888528 -.00000772  00000+0 -18547-4 0  99902 55468  43.0024 307.8868 0001220 275.1045  84.9667 15.27578486200535

JSON: /api/v1/satellites/55468 · /tle

For live sub-satellite position, see the globe view (requires WebGL).

§ Visibility from observer

Set your observer location to see the next 7 days of passes ≥ 10°. The values pass through the URL so the page stays shareable.

No JS? Fill the form by hand. The geolocation button needs JavaScript.